This demonstration page uses our WeatherBlox Daily Observations layout. Learn more.

Left ArrowRight Arrow

Hourly Observations for August 2, 2017

Temp ( °F °C ) Dew Point ( °F °C ) Humidity (%) Winds ( mph kmh ) Pressure ( in mb ) Visibility ( mi km ) Precip ( " mm )
12:53 am 00:53 Clear with Smoke 83 28.3 65 18.3 55 55 Calm 29.82 1010 10 16 0.00 0.00
1:53 am 01:53 Clear with Smoke 83 28.3 65 18.3 55 55 N 5 7 29.81 1010 10 16 0.00 0.00
2:53 am 02:53 Clear with Smoke 81 27.2 64 17.8 57 57 Calm 29.81 1010 10 16 0.00 0.00
3:53 am 03:53 Clear with Smoke 79 26.1 64 17.8 60 60 Calm 29.81 1010 10 16 0.00 0.00
4:53 am 04:53 Clear with Smoke 80 26.7 65 18.3 60 60 NNW 5 7 29.81 1010 10 16 0.00 0.00
5:53 am 05:53 Clear with Smoke 77 25 64 17.8 64 64 NNE 3 6 29.83 1010 10 16 0.00 0.00
6:53 am 06:53 Sunny with Smoke 77 25 64 17.8 64 64 Calm 29.84 1010 10 16 0.00 0.00
7:53 am 07:53 Sunny with Smoke 80 26.7 65 18.3 60 60 Calm 29.85 1011 7 11 0.00 0.00
8:53 am 08:53 Sunny with Smoke 86 30 62 16.7 45 45 NW 3 6 29.85 1011 9 14 0.00 0.00
9:53 am 09:53 Sunny with Smoke 91 32.8 61 16.1 37 37 Calm 29.85 1011 7 11 0.00 0.00
10:53 am 10:53 Sunny with Smoke 94 34.4 60 15.6 32 32 Calm 29.85 1011 7 11 0.00 0.00
11:53 am 11:53 Hazy 98 36.7 58 14.4 26 26 Calm 29.84 1010 6 10 0.00 0.00
12:53 pm 12:53 Sunny with Smoke 102 38.9 57 13.9 23 23 SSE 6 9 29.82 1010 10 16 0.00 0.00
1:53 pm 13:53 Hazy 106 41.1 58 14.4 21 21 S 6 9 29.80 1009 6 10 0.00 0.00
2:53 pm 14:53 Sunny with Smoke 107 41.7 57 13.9 19 19 S 8 13 29.78 1008 10 16 0.00 0.00
3:53 pm 15:53 Sunny with Smoke 107 41.7 56 13.3 19 19 VRB 6 9 29.75 1007 7 11 0.00 0.00
4:53 pm 16:53 Sunny with Smoke 110 43.3 54 12.2 16 16 SSE 9 15 29.73 1007 10 16 0.00 0.00
5:53 pm 17:53 Sunny with Smoke 108 42.2 57 13.9 19 19 SSE 14 22 29.72 1006 10 16 0.00 0.00
6:53 pm 18:53 Sunny with Smoke 105 40.6 59 15 22 22 SSE 14 22 29.72 1007 10 16 0.00 0.00
7:53 pm 19:53 Sunny with Smoke 99 37.2 61 16.1 29 29 SSE 12 19 29.75 1008 10 16 0.00 0.00
8:53 pm 20:53 Clear with Smoke 94 34.4 61 16.1 33 33 SSE 12 19 29.79 1009 10 16 0.00 0.00
9:53 pm 21:53 Clear with Smoke 93 33.9 66 18.9 41 41 WSW 6 9 29.83 1010 10 16 0.00 0.00
10:53 pm 22:53 Clear with Smoke 90 32.2 67 19.4 47 47 W 5 7 29.85 1011 10 16 0.00 0.00
11:53 pm 23:53 Clear with Smoke 88 31.1 66 18.9 48 48 Calm 29.85 1011 10 16 0.00 0.00

Powered by AerisWeather